Venice, Italy

8:50 AM CEST on September 23, 2017 (GMT +0200)
Tessera

Weather History for LIPZ - November, 2013

Change the Weather History Date:

Thursday, November 21, 2013

  Actual Average Record
Temperature  
Mean Temperature 50 °F -  
Max Temperature 53 °F 47 °F 59 °F (2012)
Min Temperature 46 °F 34 °F 28 °F (1997)
Degree Days  
Heating Degree Days 16    
Moisture  
Dew Point 42 °F    
Average Humidity 77    
Maximum Humidity 87    
Minimum Humidity 54    
Precipitation  
Precipitation 0.00 in 0.08 in - ()
Sea Level Pressure  
Sea Level Pressure 29.51 in    
Wind  
Wind Speed 5 mph ()    
Max Wind Speed 20 mph    
Max Gust Speed 28 mph    
Visibility 5.9 miles    
Events Rain , Thunderstorm    
Averages and records for this station are not official NWS values.
T = Trace of Precipitation, MM = Missing Value Source: Averaged Metar Reports

Daily Weather History Graph

Daily Weather History Graph

Search for Another Location

Airport or City:

Trip Planner

Search our weather history database for the weather conditions in past years. The results will help you decide how hot, cold, wet, or windy it might be!

Date:

Astronomy

Nov. 21, 2013 Rise Set
Actual Time 7:17 AM CET 4:34 PM CET
Civil Twilight 6:45 AM CET 5:07 PM CET
Nautical Twilight 6:08 AM CET 5:43 PM CET
Astronomical Twilight 5:33 AM CET 6:19 PM CET
Moon 7:57 PM CET (11/21) 10:12 AM CET (11/21)
Length of Visible Light 10h 22m
Length of Day
9h 17m
Waning Gibbous, 87% of the Moon is Illuminated
Nov 21
Waning Gibbous
Nov 25
Last Quarter
Dec 3
New
Dec 9
First Quarter
Dec 17
Full

Hourly Weather History & Observations

Time (CET) Temp. Windchill Dew Point Humidity Pressure Visibility Wind Dir Wind Speed Gust Speed Precip Events Conditions
12:20 AM 48.2 °F - 42.8 °F 82% 29.59 in 6.2 mi WSW 4.6 mph - N/A   Scattered Clouds
12:50 AM 48.2 °F - 44.6 °F 87% 29.59 in 6.2 mi SW 9.2 mph - N/A   Scattered Clouds
1:20 AM 46.4 °F 42.9 °F 41.0 °F 81% 29.59 in 6.2 mi SW 6.9 mph - N/A   Scattered Clouds
1:50 AM 46.4 °F 43.5 °F 41.0 °F 81% 29.59 in 6.2 mi SW 5.8 mph - N/A   Scattered Clouds
2:20 AM 46.4 °F - 39.2 °F 76% 29.56 in 6.2 mi Calm Calm - N/A   Scattered Clouds
2:50 AM 46.4 °F - 39.2 °F 76% 29.56 in 6.2 mi Variable 1.2 mph - N/A   Scattered Clouds
3:20 AM 46.4 °F - 41.0 °F 81% 29.56 in 6.2 mi Variable 2.3 mph - N/A   Partly Cloudy
3:50 AM 48.2 °F - 44.6 °F 87% 29.56 in - SSW 4.6 mph - N/A   Clear
4:20 AM 50.0 °F - 42.8 °F 76% 29.56 in - SSW 4.6 mph - N/A   Clear
4:50 AM 50.0 °F - 42.8 °F 76% 29.56 in - South 4.6 mph - N/A   Clear
5:20 AM 50.0 °F - 42.8 °F 76% 29.53 in - Variable 3.5 mph - N/A   Clear
5:50 AM 50.0 °F - 42.8 °F 76% 29.53 in - Variable 3.5 mph - N/A   Clear
6:20 AM 50.0 °F - 41.0 °F 71% 29.53 in - Variable 2.3 mph - N/A   Clear
6:50 AM 48.2 °F - 41.0 °F 76% 29.56 in 6.2 mi Variable 2.3 mph - N/A   Scattered Clouds
7:20 AM 46.4 °F 45.2 °F 41.0 °F 81% 29.53 in 6.2 mi Variable 3.5 mph - N/A   Scattered Clouds
7:50 AM 46.4 °F 45.2 °F 42.8 °F 87% 29.53 in 6.2 mi Variable 3.5 mph - N/A   Mostly Cloudy
8:20 AM 46.4 °F - 42.8 °F 87% 29.53 in 6.2 mi Variable 2.3 mph - N/A   Mostly Cloudy
8:50 AM 48.2 °F - 44.6 °F 87% 29.53 in 6.2 mi Calm Calm - N/A   Mostly Cloudy
9:20 AM 48.2 °F - 44.6 °F 87% 29.53 in 6.2 mi Variable 2.3 mph - N/A Rain Light Rain
9:50 AM 48.2 °F - 44.6 °F 87% 29.53 in 6.2 mi Variable 2.3 mph - N/A Rain Light Rain
10:20 AM 48.2 °F - 41.0 °F 76% 29.53 in 6.2 mi Variable 3.5 mph - N/A Rain Light Rain
10:50 AM 50.0 °F - 42.8 °F 76% 29.50 in 6.2 mi Variable 2.3 mph - N/A   Scattered Clouds
11:20 AM 51.8 °F - 42.8 °F 71% 29.50 in 6.2 mi Variable 2.3 mph - N/A   Scattered Clouds
11:50 AM 51.8 °F - 41.0 °F 67% 29.50 in 6.2 mi Variable 1.2 mph - N/A   Scattered Clouds
12:20 PM 51.8 °F - 41.0 °F 67% 29.50 in 6.2 mi Variable 2.3 mph - N/A   Scattered Clouds
12:50 PM 51.8 °F - 39.2 °F 62% 29.50 in 6.2 mi Variable 3.5 mph - N/A   Mostly Cloudy
1:50 PM 51.8 °F - 37.4 °F 58% 29.47 in 6.2 mi Calm Calm - N/A   Scattered Clouds
2:20 PM 53.6 °F - 37.4 °F 54% 29.47 in 6.2 mi Variable 1.2 mph - N/A   Scattered Clouds
2:50 PM 51.8 °F - 37.4 °F 58% 29.47 in 6.2 mi Variable 2.3 mph - N/A   Scattered Clouds
3:20 PM 51.8 °F - 37.4 °F 58% 29.47 in 6.2 mi Variable 2.3 mph - N/A   Scattered Clouds
3:50 PM 50.0 °F - 39.2 °F 66% 29.47 in 6.2 mi ENE 4.6 mph - N/A   Scattered Clouds
4:20 PM 50.0 °F - 42.8 °F 76% 29.47 in 6.2 mi NE 6.9 mph - N/A   Scattered Clouds
4:50 PM 50.0 °F - 42.8 °F 76% 29.47 in 6.2 mi ENE 10.4 mph - N/A   Scattered Clouds
5:20 PM 48.2 °F - 42.8 °F 82% 29.47 in 6.2 mi NE 9.2 mph - N/A   Scattered Clouds
5:50 PM 48.2 °F - 42.8 °F 82% 29.50 in 6.2 mi NE 9.2 mph - N/A   Scattered Clouds
6:20 PM 48.2 °F - 42.8 °F 82% 29.47 in 6.2 mi NE 12.7 mph - N/A   Scattered Clouds
6:50 PM 48.2 °F - 42.8 °F 82% 29.47 in 6.2 mi NE 11.5 mph - N/A Rain Light Rain
7:20 PM 48.2 °F - 42.8 °F 82% 29.47 in 6.2 mi NE 13.8 mph - N/A Rain Light Rain
7:50 PM 48.2 °F - 42.8 °F 82% 29.47 in 6.2 mi NE 15.0 mph - N/A Rain Light Rain
8:20 PM 48.2 °F - 42.8 °F 82% 29.44 in 3.7 mi NE 15.0 mph - N/A Rain Rain
9:20 PM 46.4 °F 43.5 °F 42.8 °F 87% 29.47 in 2.5 mi NNW 5.8 mph - N/A Rain , Thunderstorm Light Thunderstorms and Rain
9:50 PM 48.2 °F - 44.6 °F 87% 29.44 in 3.1 mi NE 8.1 mph - N/A Rain , Thunderstorm Light Thunderstorms and Rain
10:20 PM 51.8 °F - 46.4 °F 82% 29.44 in 3.1 mi SE 17.3 mph - N/A Rain Rain
10:50 PM 50.0 °F - 44.6 °F 82% 29.44 in 5.0 mi SSW 13.8 mph 27.6 mph N/A Rain Rain
11:20 PM 48.2 °F - 42.8 °F 82% 29.47 in 6.2 mi South 19.6 mph - N/A Rain Light Rain
11:50 PM 50.0 °F - 41.0 °F 71% 29.44 in 6.2 mi SSE 12.7 mph - N/A Rain Light Rain